Location: Eschertshofen
(49.3064°N, 11.5756°E)
Time: 22:31:45
(UTC+00:00)

NOSS 2-2 (E) - Pass Details

Date: 18 September 2020
Orbit: 468 x 1739 km, 63.3° (Epoch: 26 October)

Event Time Altitude Azimuth Distance (km) Brightness Sun altitude
Rises 19:12:38 0° 231° (SW) 2,497 7.0 -18.6°
Reaches altitude 10° 19:14:39 10° 235° (SW) 1,641 6.1 -18.9°
Maximum altitude 19:18:09 61° 317° (NW) 587 3.6 -19.4°
Drops below altitude 10° 19:22:17 10° 38° (NE) 1,928 6.0 -20.0°
Sets 19:24:50 0° 42° (NE) 2,992 6.9 -20.4°
